Time,TemperatureF,DewpointF,PressureIn,WindDirection,WindDirectionDegrees,WindSpeedMPH,WindSpeedGustMPH,Humidity,HourlyPrecipIn,Conditions,Clouds,dailyrainin,SoftwareType,DateUTC
2013-02-10 00:01:00,30.0,25.0,30.27,NNW,330,0.0,0.0,80,0.00,,,0.00,,2013-02-10 05:01:00,
2013-02-10 00:11:00,30.0,25.0,30.27,NNW,330,0.0,0.0,80,0.00,,,0.00,,2013-02-10 05:11:00,
2013-02-10 00:22:00,30.0,25.0,30.27,NNW,330,0.0,0.0,82,0.00,,,0.00,,2013-02-10 05:22:00,
2013-02-10 00:32:00,29.0,24.0,30.28,NNW,330,0.0,0.0,82,0.00,,,0.00,,2013-02-10 05:32:00,
2013-02-10 00:41:00,29.0,24.0,30.28,NNW,330,0.0,0.0,82,0.00,,,0.00,,2013-02-10 05:41:00,
2013-02-10 00:52:00,29.0,25.0,30.28,NNW,330,0.0,0.0,83,0.00,,,0.00,,2013-02-10 05:52:00,
2013-02-10 01:02:00,29.0,25.0,30.28,NNW,330,0.0,0.0,83,0.00,,,0.00,,2013-02-10 06:02:00,
2013-02-10 01:11:00,29.0,25.0,30.28,NNW,330,0.0,0.0,83,0.00,,,0.00,,2013-02-10 06:11:00,
2013-02-10 01:21:00,28.0,24.0,30.28,NNW,330,0.0,0.0,83,0.00,,,0.00,,2013-02-10 06:21:00,
2013-02-10 01:32:00,28.0,24.0,30.27,NNW,330,0.0,0.0,84,0.00,,,0.00,,2013-02-10 06:32:00,
2013-02-10 01:42:00,28.0,24.0,30.27,NNW,330,0.0,0.0,84,0.00,,,0.00,,2013-02-10 06:42:00,
2013-02-10 01:52:00,28.0,24.0,30.28,NNW,330,0.0,0.0,84,0.00,,,0.00,,2013-02-10 06:52:00,
2013-02-10 02:01:00,28.0,24.0,30.28,NNW,330,0.0,0.0,85,0.00,,,0.00,,2013-02-10 07:01:00,
2013-02-10 02:11:00,28.0,24.0,30.28,NNW,330,0.0,0.0,85,0.00,,,0.00,,2013-02-10 07:11:00,
2013-02-10 02:21:00,28.0,24.0,30.28,NNW,330,0.0,0.0,85,0.00,,,0.00,,2013-02-10 07:21:00,
2013-02-10 02:32:00,28.0,24.0,30.29,NNW,330,0.0,0.0,84,0.00,,,0.00,,2013-02-10 07:32:00,
2013-02-10 02:42:00,28.0,24.0,30.29,NNW,330,0.0,0.0,84,0.00,,,0.00,,2013-02-10 07:42:00,
2013-02-10 02:52:00,28.0,24.0,30.29,NNW,330,0.0,0.0,84,0.00,,,0.00,,2013-02-10 07:52:00,
2013-02-10 03:01:00,27.0,23.0,30.30,NNW,330,0.0,0.0,83,0.00,,,0.00,,2013-02-10 08:01:00,
2013-02-10 03:11:00,27.0,23.0,30.30,NNW,330,0.0,0.0,83,0.00,,,0.00,,2013-02-10 08:11:00,
2013-02-10 03:21:00,27.0,23.0,30.29,NNW,330,0.0,0.0,85,0.00,,,0.00,,2013-02-10 08:21:00,
2013-02-10 03:32:00,27.0,23.0,30.29,NNW,330,0.0,0.0,85,0.00,,,0.00,,2013-02-10 08:32:00,
2013-02-10 03:43:00,27.0,23.0,30.29,NNW,330,0.0,0.0,85,0.00,,,0.00,,2013-02-10 08:43:00,
2013-02-10 03:52:00,27.0,23.0,30.30,NNW,330,0.0,0.0,85,0.00,,,0.00,,2013-02-10 08:52:00,
2013-02-10 04:02:00,27.0,23.0,30.30,NNW,330,0.0,0.0,84,0.00,,,0.00,,2013-02-10 09:02:00,
2013-02-10 04:11:00,27.0,23.0,30.30,NNW,330,0.0,0.0,84,0.00,,,0.00,,2013-02-10 09:11:00,
2013-02-10 04:21:00,27.0,23.0,30.30,NNW,330,0.0,0.0,84,0.00,,,0.00,,2013-02-10 09:21:00,
2013-02-10 04:32:00,27.0,23.0,30.31,NNW,330,0.0,0.0,84,0.00,,,0.00,,2013-02-10 09:32:00,
2013-02-10 04:42:00,27.0,23.0,30.31,NNW,330,0.0,0.0,84,0.00,,,0.00,,2013-02-10 09:42:00,
2013-02-10 04:52:00,27.0,23.0,30.31,NNW,330,0.0,0.0,84,0.00,,,0.00,,2013-02-10 09:52:00,
2013-02-10 05:01:00,27.0,23.0,30.31,NNW,330,0.0,0.0,83,0.00,,,0.00,,2013-02-10 10:01:00,
2013-02-10 05:11:00,27.0,22.0,30.31,NNW,330,0.0,0.0,82,0.00,,,0.00,,2013-02-10 10:11:00,
2013-02-10 05:21:00,27.0,22.0,30.31,NNW,330,0.0,0.0,82,0.00,,,0.00,,2013-02-10 10:21:00,
2013-02-10 05:31:00,27.0,22.0,30.31,NNW,330,0.0,0.0,80,0.00,,,0.00,,2013-02-10 10:31:00,
2013-02-10 05:42:00,27.0,22.0,30.31,NNW,330,0.0,0.0,80,0.00,,,0.00,,2013-02-10 10:42:00,
2013-02-10 05:52:00,27.0,21.0,30.31,ESE,106,0.0,1.0,78,0.00,,,0.00,,2013-02-10 10:52:00,
2013-02-10 06:01:00,28.0,22.0,30.31,ESE,106,0.0,0.0,77,0.00,,,0.00,,2013-02-10 11:01:00,
2013-02-10 06:11:00,28.0,22.0,30.31,ESE,106,0.0,0.0,77,0.00,,,0.00,,2013-02-10 11:11:00,
2013-02-10 06:22:00,28.0,21.0,30.31,ESE,106,0.0,0.0,74,0.00,,,0.00,,2013-02-10 11:22:00,
2013-02-10 06:32:00,29.0,21.0,30.32,ESE,106,0.0,0.0,72,0.00,,,0.00,,2013-02-10 11:32:00,
2013-02-10 06:42:00,29.0,21.0,30.32,ESE,106,0.0,0.0,72,0.00,,,0.00,,2013-02-10 11:42:00,
2013-02-10 06:52:00,29.0,21.0,30.32,ESE,106,0.0,0.0,73,0.00,,,0.00,,2013-02-10 11:52:00,
2013-02-10 07:02:00,28.0,21.0,30.32,East,83,0.0,0.0,74,0.00,,,0.00,,2013-02-10 12:02:00,
2013-02-10 07:12:00,28.0,21.0,30.32,East,83,0.0,0.0,74,0.00,,,0.00,,2013-02-10 12:12:00,
2013-02-10 07:21:00,28.0,20.0,30.34,East,83,0.0,0.0,73,0.00,,,0.00,,2013-02-10 12:21:00,
2013-02-10 07:32:00,29.0,20.0,30.35,East,83,0.0,0.0,70,0.00,,,0.00,,2013-02-10 12:32:00,
2013-02-10 07:42:00,29.0,20.0,30.35,East,83,0.0,0.0,70,0.00,,,0.00,,2013-02-10 12:42:00,
2013-02-10 07:52:00,29.0,20.0,30.35,East,83,0.0,0.0,70,0.00,,,0.00,,2013-02-10 12:52:00,
2013-02-10 08:02:00,30.0,22.0,30.37,East,83,0.0,0.0,71,0.00,,,0.00,,2013-02-10 13:02:00,
2013-02-10 08:11:00,30.0,22.0,30.37,East,83,0.0,0.0,71,0.00,,,0.00,,2013-02-10 13:11:00,
2013-02-10 08:21:00,30.0,22.0,30.36,East,83,0.0,0.0,73,0.00,,,0.00,,2013-02-10 13:21:00,
2013-02-10 08:31:00,31.0,23.0,30.37,East,99,0.0,4.0,73,0.00,,,0.00,,2013-02-10 13:31:00,
2013-02-10 08:41:00,31.0,23.0,30.37,East,99,0.0,4.0,73,0.00,,,0.00,,2013-02-10 13:41:00,
2013-02-10 08:52:00,33.0,22.0,30.38,ENE,61,0.0,4.0,63,0.00,,,0.00,,2013-02-10 13:52:00,
2013-02-10 09:02:00,34.0,21.0,30.37,East,83,0.0,2.0,59,0.00,,,0.00,,2013-02-10 14:02:00,
2013-02-10 09:11:00,34.0,21.0,30.37,East,83,0.0,2.0,59,0.00,,,0.00,,2013-02-10 14:11:00,
2013-02-10 09:21:00,35.0,21.0,30.37,ENE,74,0.0,3.0,57,0.00,,,0.00,,2013-02-10 14:21:00,
2013-02-10 09:32:00,36.0,23.0,30.39,SE,128,0.0,3.0,58,0.00,,,0.00,,2013-02-10 14:32:00,
2013-02-10 09:41:00,36.0,23.0,30.39,SE,128,0.0,3.0,58,0.00,,,0.00,,2013-02-10 14:41:00,
2013-02-10 09:52:00,36.0,22.0,30.39,South,181,0.0,3.0,57,0.00,,,0.00,,2013-02-10 14:52:00,
2013-02-10 10:02:00,37.0,23.0,30.39,SE,139,1.0,4.0,56,0.00,,,0.00,,2013-02-10 15:02:00,
2013-02-10 10:11:00,37.0,23.0,30.39,SE,139,1.0,4.0,56,0.00,,,0.00,,2013-02-10 15:11:00,
2013-02-10 10:22:00,39.0,23.0,30.39,East,84,2.0,5.0,52,0.00,,,0.00,,2013-02-10 15:22:00,
2013-02-10 10:32:00,39.0,22.0,30.38,SE,126,0.0,3.0,50,0.00,,,0.00,,2013-02-10 15:32:00,
2013-02-10 10:42:00,39.0,22.0,30.38,SE,126,0.0,3.0,50,0.00,,,0.00,,2013-02-10 15:42:00,
2013-02-10 10:52:00,40.0,23.0,30.37,East,90,1.0,4.0,51,0.00,,,0.00,,2013-02-10 15:52:00,
2013-02-10 11:02:00,42.0,22.0,30.40,SSE,160,0.0,6.0,45,0.00,,,0.00,,2013-02-10 16:02:00,
2013-02-10 11:12:00,42.0,21.0,30.40,South,176,0.0,4.0,42,0.00,,,0.00,,2013-02-10 16:12:00,
2013-02-10 11:22:00,42.0,21.0,30.40,South,176,0.0,4.0,42,0.00,,,0.00,,2013-02-10 16:22:00,
2013-02-10 11:32:00,43.0,23.0,30.39,South,181,0.0,6.0,45,0.00,,,0.00,,2013-02-10 16:32:00,
2013-02-10 11:42:00,44.0,23.0,30.39,South,178,0.0,4.0,44,0.00,,,0.00,,2013-02-10 16:42:00,
2013-02-10 11:52:00,44.0,23.0,30.39,South,178,0.0,4.0,44,0.00,,,0.00,,2013-02-10 16:52:00,
2013-02-10 12:02:00,45.0,23.0,30.37,East,91,2.0,5.0,41,0.00,,,0.00,,2013-02-10 17:02:00,
2013-02-10 12:11:00,45.0,23.0,30.37,East,91,2.0,5.0,41,0.00,,,0.00,,2013-02-10 17:11:00,
2013-02-10 12:22:00,47.0,23.0,30.37,South,191,0.0,5.0,39,0.00,,,0.00,,2013-02-10 17:22:00,
2013-02-10 12:32:00,48.0,23.0,30.37,South,174,5.0,9.0,37,0.00,,,0.00,,2013-02-10 17:32:00,
2013-02-10 12:42:00,49.0,25.0,30.35,South,186,1.0,7.0,38,0.00,,,0.00,,2013-02-10 17:42:00,
2013-02-10 12:52:00,49.0,25.0,30.35,South,186,1.0,7.0,38,0.00,,,0.00,,2013-02-10 17:52:00,
2013-02-10 13:02:00,49.0,23.0,30.34,South,190,2.0,7.0,36,0.00,,,0.00,,2013-02-10 18:02:00,
2013-02-10 13:12:00,49.0,22.0,30.34,South,185,3.0,9.0,34,0.00,,,0.00,,2013-02-10 18:12:00,
2013-02-10 13:22:00,49.0,22.0,30.34,South,185,3.0,9.0,34,0.00,,,0.00,,2013-02-10 18:22:00,
2013-02-10 13:32:00,50.0,21.0,30.32,South,191,4.0,7.0,31,0.00,,,0.00,,2013-02-10 18:32:00,
2013-02-10 13:42:00,50.0,21.0,30.32,South,191,4.0,7.0,31,0.00,,,0.00,,2013-02-10 18:42:00,
2013-02-10 13:52:00,51.0,23.0,30.31,SW,222,0.0,10.0,33,0.00,,,0.00,,2013-02-10 18:52:00,
2013-02-10 14:02:00,52.0,22.0,30.29,South,172,2.0,10.0,31,0.00,,,0.00,,2013-02-10 19:02:00,
2013-02-10 14:12:00,52.0,20.0,30.29,WSW,253,3.0,11.0,28,0.00,,,0.00,,2013-02-10 19:12:00,
2013-02-10 14:22:00,52.0,20.0,30.29,WSW,253,3.0,11.0,28,0.00,,,0.00,,2013-02-10 19:22:00,
2013-02-10 14:32:00,53.0,20.0,30.29,SW,233,1.0,5.0,27,0.00,,,0.00,,2013-02-10 19:32:00,
2013-02-10 14:42:00,53.0,20.0,30.29,SSE,164,2.0,7.0,27,0.00,,,0.00,,2013-02-10 19:42:00,
2013-02-10 14:52:00,53.0,20.0,30.29,SSE,164,2.0,7.0,27,0.00,,,0.00,,2013-02-10 19:52:00,
2013-02-10 15:02:00,53.0,19.0,30.27,South,180,2.0,9.0,26,0.00,,,0.00,,2013-02-10 20:02:00,
2013-02-10 15:11:00,53.0,19.0,30.27,South,180,2.0,9.0,26,0.00,,,0.00,,2013-02-10 20:11:00,
2013-02-10 15:22:00,53.0,20.0,30.26,South,173,4.0,8.0,27,0.00,,,0.00,,2013-02-10 20:22:00,
2013-02-10 15:32:00,53.0,21.0,30.26,South,176,0.0,9.0,28,0.00,,,0.00,,2013-02-10 20:32:00,
2013-02-10 15:42:00,53.0,20.0,30.25,South,189,2.0,10.0,27,0.00,,,0.00,,2013-02-10 20:42:00,
2013-02-10 15:52:00,53.0,20.0,30.25,South,189,2.0,10.0,27,0.00,,,0.00,,2013-02-10 20:52:00,
2013-02-10 16:02:00,53.0,20.0,30.25,SSE,167,0.0,10.0,27,0.00,,,0.00,,2013-02-10 21:02:00,
2013-02-10 16:11:00,53.0,20.0,30.25,SSE,167,0.0,10.0,27,0.00,,,0.00,,2013-02-10 21:11:00,
2013-02-10 16:22:00,53.0,22.0,30.25,South,172,2.0,6.0,30,0.00,,,0.00,,2013-02-10 21:22:00,
2013-02-10 16:32:00,52.0,20.0,30.25,South,177,2.0,9.0,28,0.00,,,0.00,,2013-02-10 21:32:00,
2013-02-10 16:42:00,52.0,22.0,30.25,South,176,1.0,6.0,31,0.00,,,0.00,,2013-02-10 21:42:00,
2013-02-10 16:52:00,52.0,22.0,30.25,South,176,1.0,6.0,31,0.00,,,0.00,,2013-02-10 21:52:00,
2013-02-10 17:02:00,51.0,24.0,30.25,East,93,0.0,5.0,34,0.00,,,0.00,,2013-02-10 22:02:00,
2013-02-10 17:11:00,51.0,24.0,30.24,SE,142,0.0,1.0,35,0.00,,,0.00,,2013-02-10 22:11:00,
2013-02-10 17:22:00,51.0,24.0,30.24,SE,142,0.0,1.0,35,0.00,,,0.00,,2013-02-10 22:22:00,
2013-02-10 17:32:00,50.0,24.0,30.24,SE,133,0.0,0.0,36,0.00,,,0.00,,2013-02-10 22:32:00,
2013-02-10 17:42:00,49.0,24.0,30.23,SE,133,0.0,1.0,37,0.00,,,0.00,,2013-02-10 22:42:00,
2013-02-10 17:53:00,49.0,24.0,30.23,SE,133,0.0,1.0,37,0.00,,,0.00,,2013-02-10 22:53:00,
2013-02-10 18:02:00,49.0,26.0,30.24,SE,135,0.0,0.0,40,0.00,,,0.00,,2013-02-10 23:02:00,
2013-02-10 18:11:00,49.0,26.0,30.24,SE,135,0.0,0.0,40,0.00,,,0.00,,2013-02-10 23:11:00,
2013-02-10 18:22:00,48.0,24.0,30.23,SE,135,0.0,0.0,39,0.00,,,0.00,,2013-02-10 23:22:00,
2013-02-10 18:32:00,48.0,27.0,30.22,SE,135,0.0,0.0,43,0.00,,,0.00,,2013-02-10 23:32:00,
2013-02-10 18:42:00,47.0,25.0,30.20,East,99,0.0,2.0,41,0.00,,,0.00,,2013-02-10 23:42:00,
2013-02-10 18:52:00,47.0,25.0,30.20,East,99,0.0,2.0,41,0.00,,,0.00,,2013-02-10 23:52:00,
2013-02-10 19:02:00,47.0,25.0,30.20,ESE,114,0.0,1.0,42,0.00,,,0.00,,2013-02-11 00:02:00,
2013-02-10 19:11:00,47.0,25.0,30.20,SSE,149,0.0,4.0,41,0.00,,,0.00,,2013-02-11 00:11:00,
2013-02-10 19:22:00,47.0,25.0,30.20,SSE,149,0.0,4.0,41,0.00,,,0.00,,2013-02-11 00:22:00,
2013-02-10 19:32:00,47.0,25.0,30.21,SE,126,0.0,2.0,41,0.00,,,0.00,,2013-02-11 00:32:00,
2013-02-10 19:42:00,47.0,26.0,30.21,SE,126,0.0,1.0,43,0.00,,,0.00,,2013-02-11 00:42:00,
2013-02-10 19:52:00,47.0,26.0,30.21,SE,126,0.0,1.0,43,0.00,,,0.00,,2013-02-11 00:52:00,
2013-02-10 20:01:00,47.0,25.0,30.22,SSE,150,0.0,1.0,41,0.00,,,0.00,,2013-02-11 01:01:00,
2013-02-10 20:11:00,47.0,25.0,30.22,SSE,150,0.0,1.0,41,0.00,,,0.00,,2013-02-11 01:11:00,
2013-02-10 20:21:00,48.0,25.0,30.22,ESE,106,0.0,4.0,41,0.00,,,0.00,,2013-02-11 01:21:00,
2013-02-10 20:32:00,48.0,25.0,30.21,East,95,0.0,1.0,41,0.00,,,0.00,,2013-02-11 01:32:00,
2013-02-10 20:42:00,48.0,25.0,30.21,East,99,0.0,1.0,41,0.00,,,0.00,,2013-02-11 01:42:00,
2013-02-10 20:52:00,48.0,25.0,30.21,East,99,0.0,1.0,41,0.00,,,0.00,,2013-02-11 01:52:00,
2013-02-10 21:01:00,48.0,26.0,30.21,East,97,0.0,2.0,42,0.00,,,0.00,,2013-02-11 02:01:00,
2013-02-10 21:11:00,48.0,26.0,30.21,East,97,0.0,2.0,42,0.00,,,0.00,,2013-02-11 02:11:00,
2013-02-10 21:21:00,48.0,28.0,30.21,East,97,0.0,0.0,45,0.00,,,0.00,,2013-02-11 02:21:00,
2013-02-10 21:32:00,48.0,27.0,30.21,East,97,0.0,1.0,44,0.00,,,0.00,,2013-02-11 02:32:00,
2013-02-10 21:42:00,48.0,27.0,30.22,East,97,0.0,0.0,44,0.00,,,0.00,,2013-02-11 02:42:00,
2013-02-10 21:52:00,48.0,27.0,30.22,East,97,0.0,0.0,44,0.00,,,0.00,,2013-02-11 02:52:00,
2013-02-10 22:02:00,48.0,29.0,30.22,East,97,0.0,0.0,48,0.00,,,0.00,,2013-02-11 03:02:00,
2013-02-10 22:11:00,48.0,33.0,30.23,East,97,0.0,0.0,55,0.00,,,0.00,,2013-02-11 03:11:00,
2013-02-10 22:21:00,48.0,33.0,30.23,East,97,0.0,0.0,55,0.00,,,0.00,,2013-02-11 03:21:00,
2013-02-10 22:32:00,48.0,33.0,30.23,East,97,0.0,0.0,55,0.00,,,0.00,,2013-02-11 03:32:00,
2013-02-10 22:42:00,48.0,34.0,30.22,East,97,0.0,1.0,59,0.00,,,0.00,,2013-02-11 03:42:00,
2013-02-10 22:52:00,48.0,34.0,30.22,East,97,0.0,1.0,59,0.00,,,0.00,,2013-02-11 03:52:00,
2013-02-10 23:01:00,48.0,36.0,30.22,SSE,162,2.0,4.0,63,0.00,,,0.00,,2013-02-11 04:01:00,
2013-02-10 23:11:00,48.0,36.0,30.22,SSE,162,2.0,4.0,63,0.00,,,0.00,,2013-02-11 04:11:00,
2013-02-10 23:22:00,48.0,36.0,30.22,SSE,164,0.0,6.0,63,0.00,,,0.00,,2013-02-11 04:22:00,
2013-02-10 23:32:00,47.0,39.0,30.16,SSE,162,0.0,6.0,75,0.02,,,0.02,,2013-02-11 04:32:00,
2013-02-10 23:42:00,46.0,40.0,30.14,South,186,0.0,3.0,80,0.02,,,0.02,,2013-02-11 04:42:00,
2013-02-10 23:52:00,46.0,40.0,30.14,South,186,0.0,3.0,80,0.02,,,0.02,,2013-02-11 04:52:00,